New York, NY

1:04 PM EDT on April 28, 2017 (GMT -0400)
La Guardia

Weather History for KLGA - February, 2014

Change the Weather History Date:

Wednesday, February 5, 2014

  Actual Average Record
Temperature  
Mean Temperature 32 °F 34 °F  
Max Temperature 34 °F 40 °F 70 °F (1991)
Min Temperature 29 °F 27 °F 6 °F (1995)
Degree Days  
Heating Degree Days 33 31  
Month to date heating degree days 145 157  
Since 1 July heating degree days 2868 2756  
Cooling Degree Days 0 0  
Month to date cooling degree days 0 0  
Year to date cooling degree days 0 0  
Moisture  
Dew Point 28 °F    
Average Humidity 82    
Maximum Humidity 92    
Minimum Humidity 72    
Precipitation  
Precipitation 1.18 in 0.09 in 1.18 in (2014)
Month to date precipitation 2.26 0.48  
Year to date precipitation 4.62 3.65  
Snow  
Snow 3.30 in 0.30 in 3.70 in (2001)
Month to date snowfall 11.0 1.6  
Since 1 July snowfall 35.5 14.5  
Snow Depth 8.00 in    
Sea Level Pressure  
Sea Level Pressure 29.89 in    
Wind  
Wind Speed 11 mph (NNE)    
Max Wind Speed 24 mph    
Max Gust Speed 30 mph    
Visibility 4 miles    
Events Fog , Rain , Snow    
T = Trace of Precipitation, MM = Missing Value Source: NWS Daily Summary

Daily Weather History Graph

Daily Weather History Graph

Search for Another Location

Airport or City:

Trip Planner

Search our weather history database for the weather conditions in past years. The results will help you decide how hot, cold, wet, or windy it might be!

Date:

Astronomy

Feb. 05, 2014 Rise Set
Actual Time 7:01 AM EST 5:18 PM EST
Civil Twilight 6:32 AM EST 5:46 PM EST
Nautical Twilight 6:00 AM EST 6:19 PM EST
Astronomical Twilight 5:28 AM EST 6:51 PM EST
Moon 10:11 AM EST (2/5) No Moon Set
Length of Visible Light 11h 13m
Length of Day
10h 16m
Waxing Crescent, 39% of the Moon is Illuminated
Feb 5
Waxing Crescent
Feb 6
First Quarter
Feb 14
Full
Feb 22
Last Quarter
Mar 1
New

Hourly Weather History & Observations

Time (EST) Temp. Windchill Dew Point Humidity Pressure Visibility Wind Dir Wind Speed Gust Speed Precip Events Conditions
12:09 AM 30.2 °F 21.9 °F 24.8 °F 80% 30.25 in 9.0 mi ENE 9.2 mph - N/A   Overcast
12:51 AM 30.9 °F 22.2 °F 23.0 °F 72% 30.24 in 10.0 mi NE 10.4 mph - N/A   Overcast
1:18 AM 30.2 °F 20.8 °F 24.8 °F 80% 30.22 in 2.5 mi NE 11.5 mph - 0.01 in Snow Light Snow
1:35 AM 30.2 °F 21.3 °F 24.8 °F 80% 30.21 in 2.5 mi ENE 10.4 mph - 0.03 in Snow Light Snow
1:44 AM 30.2 °F 19.8 °F 26.6 °F 86% 30.19 in 2.0 mi ENE 13.8 mph - 0.03 in Snow Light Snow
1:51 AM 30.0 °F 20.5 °F 26.1 °F 85% 30.18 in 2.0 mi ENE 11.5 mph - 0.04 in Snow Light Snow
2:22 AM 30.2 °F 18.5 °F 26.6 °F 86% 30.18 in 1.5 mi NE 17.3 mph - 0.02 in Snow Light Snow
2:51 AM 30.0 °F 20.0 °F 27.0 °F 88% 30.17 in 1.5 mi NNE 12.7 mph - 0.07 in Snow Light Snow
3:03 AM 30.2 °F 20.2 °F 26.6 °F 86% 30.17 in 0.8 mi NE 12.7 mph - 0.01 in Snow Light Snow
3:40 AM 30.2 °F 20.8 °F 26.6 °F 86% 30.14 in 0.5 mi NE 11.5 mph - 0.09 in Fog , Snow Snow
3:51 AM 30.0 °F 20.0 °F 27.0 °F 88% 30.14 in 0.5 mi NE 12.7 mph - 0.11 in Fog , Snow Snow
4:15 AM 30.2 °F 18.9 °F 26.6 °F 86% 30.10 in 0.2 mi NE 16.1 mph - 0.06 in Fog , Snow Heavy Snow
4:30 AM 28.4 °F 15.1 °F 26.6 °F 93% 30.07 in 0.5 mi ENE 20.7 mph - 0.15 in Snow Snow
4:44 AM 30.2 °F 19.3 °F 26.6 °F 86% 30.08 in 1.0 mi ENE 15.0 mph - 0.21 in Snow Ice Pellets
4:51 AM 30.0 °F 20.0 °F 27.0 °F 88% 30.09 in 1.0 mi NE 12.7 mph - 0.22 in Rain Light Freezing Rain
5:02 AM 30.2 °F 19.8 °F 26.6 °F 86% 30.08 in 2.0 mi ENE 13.8 mph - 0.03 in Rain Light Freezing Rain
5:39 AM 30.2 °F 18.9 °F 28.4 °F 93% 30.06 in 2.0 mi NE 16.1 mph - 0.16 in Rain Light Freezing Rain
5:46 AM 30.2 °F 18.1 °F 26.6 °F 86% 30.05 in 1.8 mi ENE 18.4 mph - 0.18 in Rain Light Freezing Rain
5:51 AM 30.9 °F 19.1 °F 28.0 °F 89% 30.03 in 1.8 mi ENE 18.4 mph - 0.19 in Rain Light Freezing Rain
6:42 AM 30.2 °F 18.5 °F 26.6 °F 86% 30.04 in 2.0 mi NNE 17.3 mph 27.6 mph 0.09 in Rain Light Freezing Rain
6:51 AM 30.9 °F 19.4 °F 28.0 °F 89% 30.04 in 2.0 mi NNE 17.3 mph 25.3 mph 0.11 in Rain Light Freezing Rain
7:44 AM 30.2 °F 19.3 °F 28.4 °F 93% 30.00 in 1.5 mi NE 15.0 mph 23.0 mph 0.24 in Rain Light Freezing Rain
7:51 AM 30.9 °F 21.7 °F 28.0 °F 89% 29.99 in 1.5 mi NE 11.5 mph - 0.27 in Rain Light Freezing Rain
8:06 AM 30.2 °F 18.1 °F 28.4 °F 93% 29.97 in 3.0 mi ENE 18.4 mph - 0.04 in Rain Light Freezing Rain
8:51 AM 30.9 °F 20.2 °F 28.0 °F 89% 29.91 in 3.0 mi ENE 15.0 mph - 0.11 in Rain Light Freezing Rain
9:38 AM 32.0 °F 21.6 °F 28.4 °F 87% 29.85 in 10.0 mi ENE 15.0 mph - 0.01 in   Overcast
9:51 AM 32.0 °F 21.2 °F 28.0 °F 85% 29.84 in 10.0 mi ENE 16.1 mph - 0.01 in   Overcast
10:13 AM 32.0 °F 21.2 °F 28.4 °F 87% 29.82 in 10.0 mi NE 16.1 mph - 0.00 in Rain Light Freezing Rain
10:38 AM 32.0 °F 20.5 °F 28.4 °F 87% 29.78 in 9.0 mi NE 18.4 mph - 0.00 in   Overcast
10:51 AM 32.0 °F 21.6 °F 28.0 °F 85% 29.77 in 8.0 mi ENE 15.0 mph - 0.00 in   Overcast
11:15 AM 32.0 °F 21.6 °F 28.4 °F 87% 29.73 in 5.0 mi NE 15.0 mph - 0.00 in   Light Freezing Drizzle
11:51 AM 32.0 °F 23.0 °F 28.9 °F 88% 29.71 in 10.0 mi NE 11.5 mph - 0.00 in   Overcast
12:00 PM 32.0 °F 23.6 °F 28.4 °F 87% 29.71 in 5.0 mi NNE 10.4 mph - 0.00 in Rain Light Freezing Rain
12:51 PM 32.0 °F 24.2 °F 30.0 °F 92% 29.68 in 3.0 mi NE 9.2 mph - 0.03 in Rain Light Freezing Rain
1:24 PM 33.8 °F 27.7 °F 30.2 °F 87% 29.68 in 6.0 mi NNE 6.9 mph - 0.01 in   Light Drizzle
1:46 PM 33.8 °F 27.7 °F 30.2 °F 87% 29.68 in 2.0 mi NNE 6.9 mph - 0.01 in   Light Drizzle
1:51 PM 33.1 °F 24.9 °F 30.0 °F 89% 29.68 in 2.0 mi NE 10.4 mph - 0.01 in   Light Drizzle
1:53 PM 33.8 °F 28.6 °F 30.2 °F 87% 29.69 in 1.0 mi Variable 5.8 mph - 0.00 in Rain Light Rain
2:11 PM 33.8 °F 27.0 °F 30.2 °F 87% 29.67 in 0.5 mi NE 8.1 mph - 0.01 in Rain Light Rain
2:27 PM 32.0 °F 23.6 °F 30.2 °F 93% 29.67 in 1.8 mi NE 10.4 mph - 0.01 in   Overcast
2:51 PM 32.0 °F 24.8 °F 30.0 °F 92% 29.67 in 1.8 mi NE 8.1 mph - 0.01 in   Overcast
3:35 PM 33.8 °F 27.7 °F 30.2 °F 87% 29.64 in 1.8 mi NE 6.9 mph - N/A   Overcast
3:51 PM 33.1 °F 25.5 °F 30.0 °F 89% 29.65 in 2.5 mi NE 9.2 mph - N/A   Overcast
4:05 PM 33.8 °F 29.6 °F 30.2 °F 87% 29.65 in 2.5 mi NNE 4.6 mph - N/A   Overcast
4:19 PM 33.8 °F 27.7 °F 30.2 °F 87% 29.65 in 6.0 mi NNE 6.9 mph - N/A   Overcast
4:27 PM 33.8 °F 27.7 °F 30.2 °F 87% 29.65 in 6.0 mi North 6.9 mph - N/A   Overcast
4:32 PM 33.8 °F 27.7 °F 30.2 °F 87% 29.66 in 6.0 mi NNE 6.9 mph - N/A   Overcast
4:51 PM 34.0 °F 28.8 °F 30.0 °F 85% 29.66 in 6.0 mi NE 5.8 mph - N/A   Overcast
5:34 PM 33.8 °F 29.6 °F 30.2 °F 87% 29.68 in 10.0 mi North 4.6 mph - N/A   Overcast
5:51 PM 33.1 °F 25.5 °F 28.9 °F 85% 29.70 in 9.0 mi NNW 9.2 mph - N/A   Overcast
6:51 PM 33.1 °F 27.7 °F 28.9 °F 85% 29.74 in 4.0 mi NW 5.8 mph - N/A   Overcast
7:05 PM 33.8 °F 28.6 °F 28.4 °F 81% 29.75 in 4.0 mi NW 5.8 mph - N/A   Overcast
7:23 PM 33.8 °F 27.7 °F 28.4 °F 81% 29.76 in 4.0 mi NNW 6.9 mph - N/A   Overcast
7:51 PM 33.1 °F 26.1 °F 28.9 °F 85% 29.78 in 3.0 mi NNW 8.1 mph - N/A   Overcast
8:06 PM 33.8 °F 26.4 °F 28.4 °F 81% 29.78 in 4.0 mi NNW 9.2 mph - N/A   Overcast
8:16 PM 32.0 °F 25.6 °F 28.4 °F 87% 29.79 in 4.0 mi NNW 6.9 mph - N/A   Overcast
8:23 PM 32.0 °F 24.8 °F 28.4 °F 87% 29.79 in 5.0 mi NNW 8.1 mph - N/A   Overcast
8:47 PM 33.8 °F 28.6 °F 28.4 °F 81% 29.80 in 7.0 mi NNW 5.8 mph - 0.00 in   Light Drizzle
8:51 PM 33.1 °F 26.1 °F 28.9 °F 85% 29.80 in 8.0 mi NNW 8.1 mph - 0.00 in   Light Drizzle
9:51 PM 32.0 °F 23.6 °F 28.0 °F 85% 29.86 in 9.0 mi NW 10.4 mph - 0.00 in   Overcast
10:51 PM 32.0 °F 23.6 °F 26.1 °F 79% 29.90 in 10.0 mi NNW 10.4 mph - N/A   Overcast
11:51 PM 30.9 °F 21.7 °F 24.1 °F 76% 29.97 in 10.0 mi North 11.5 mph - N/A   Overcast